Regional Weather Roundup
Issued by NWS

Home | Current Version | Previous Version | Graphics & Text | Print | Product List | Glossary Off
Versions: 1 2 3 4 5 6 7 8 9 10 11 12 13 14 15 16 17 18 19 20 21 22 23 24 25 26 27 28 29 30 31 32 33 34 35 36 37 38 39 40 41 42 43 44 45 46 47 48 49 50

000
ASUS43 KTOP 161959
RWRKS

WEATHER ROUNDUP FOR KANSAS
NATIONAL WEATHER SERVICE GOODLAND KS
300 PM CDT MON OCT 16 2017

NOTE:  "FAIR" INDICATES FEW OR NO CLOUDS BELOW 12,000 FEET WITH NO
SIGNIFICANT WEATHER AND/OR OBSTRUCTIONS TO VISIBILITY.

KSZ001>006-013>018-027>032-041>047-162100-
NORTHWEST KANSAS

CITY           SKY/WX    TMP DP  RH WIND       PRES   REMARKS
GOODLAND       CLOUDY    73  31  21 S16       30.15F
HAYS           SUNNY     74  32  21 SW26G33   30.21F
HILL CITY      SUNNY     77  32  19 SW18      30.18F
RUSSELL        SUNNY     74  33  22 S25G33    30.21F
$$

KSZ061>065-074>080-084>089-162100-
SOUTHWEST KANSAS

CITY           SKY/WX    TMP DP  RH WIND       PRES   REMARKS
DODGE CITY     SUNNY     72  28  19 S20       30.25F
ELKHART          N/A     72  37  28 S17         N/A
GARDEN CITY    SUNNY     74  30  19 S23G31    30.22F
GREAT BEND     SUNNY     72  33  24 SW18G25   30.24F
LIBERAL        SUNNY     72  35  25 S17G23    30.25F
$$

KSZ066>073-081>083-090>101-162100-
SOUTHEAST KANSAS

CITY           SKY/WX    TMP DP  RH WIND       PRES   REMARKS
CHANUTE        SUNNY     67  38  34 S10       30.34F
COFFEYVILLE    SUNNY     67  38  34 CALM      30.34F
HUTCHINSON     SUNNY     73  36  25 S15       30.27F
MEDICINE LODGE   N/A     72  33  24 S14G22    30.28F
NEWTON         SUNNY     68  39  34 SW16G23   30.30F
PARSONS        LGT RAIN  67  36  31 S3        30.35F
WICHITA INTL   MOSUNNY   68  39  34 S14       30.30F
WICHITA JABRA  SUNNY     69  37  30 SW14      30.30F
WICHITA MCCONL SUNNY     69  38  31 SW14      30.31
WINFIELD       SUNNY     67  40  37 S12       30.34F
$$

KSZ007>012-019>026-033>040-048>060-102>105-162100-
NORTHEAST KANSAS

CITY           SKY/WX    TMP DP  RH WIND       PRES   REMARKS
CONCORDIA      SUNNY     73  36  25 S18G25    30.22F
EMPORIA        SUNNY     69  37  30 SW10      30.30F
LAWRENCE       SUNNY     69  41  36 S12       30.29F
MANHATTAN      SUNNY     73  39  29 S17G23    30.25F
OLATHE IND     SUNNY     68  41  37 SW12G17   30.31F
OLATHE EXE     SUNNY     66  40  38 S10       30.31F
SALINA         SUNNY     74  40  29 S16G23    30.25F
TOPEKA BILLARD SUNNY     71  38  29 S10       30.27F
TOPEKA FORBES  SUNNY     72  39  30 SW15      30.28F
$$




USA.gov is the U.S. government's official web portal to all federal, state and local government web resources and services.